sat.trackr.live / text

‹ back to catalog

STARLINK-35522

NORAD 66341 · 2025-253Y

PAYLOAD ACTIVE UNKNOWN

§ Identity

Operator
Country
US
Launch date
2025-11-06
Launch site
AFETR
Launch vehicle
Mass (kg)
RCS (m²)

Purposes: comms

External: N2YO · Heavens-Above · Gunter

§ Orbital elements

Epoch: 2026-05-25T00:02:45.824064Z

Period
94.27 min
Inclination
42.9986°
Eccentricity
0.0000975
Mean motion
15.27589922 rev/d
Perigee alt
482.4 km
Apogee alt
483.7 km
Semi-major
6,861.2 km
B*
5.4296e-4
RAAN
141.6895°
Arg perigee
287.3008°
Mean anomaly
72.7737°
Rev number
3,191

§ Raw data

STARLINK-355221 66341U 25253Y   26145.00191926  .00014713  00000+0  54296-3 0  99972 66341  42.9986 141.6895 0000975 287.3008  72.7737 15.27589922 31910

JSON: /api/v1/satellites/66341 · /tle

For live sub-satellite position, see the globe view (requires WebGL).

§ Visibility from observer

Set your observer location to see the next 7 days of passes ≥ 10°. The values pass through the URL so the page stays shareable.

No JS? Fill the form by hand. The geolocation button needs JavaScript.